Regional Weather Roundup
Issued by NWS

Home | Current Version | Previous Version | Text Only | Print | Product List | Glossary Off
Versions: 1 2 3 4 5 6 7 8 9 10 11 12 13 14 15 16 17 18 19 20 21 22 23 24 25 26 27 28 29 30 31 32 33 34 35 36 37 38 39 40 41 42 43 44 45 46 47 48 49 50

000
ASUS43 KDTX 031110
RWRMI
MICHIGAN HOURLY REGIONAL WEATHER ROUNDUP
NATIONAL WEATHER SERVICE DETROIT/PONTIAC MI
700 AM EDT FRI JUL 03 2015

NOTE: "FAIR" INDICATES FEW OR NO CLOUDS BELOW 12,000 FEET WITH NO
SIGNIFICANT WEATHER AND/OR OBSTRUCTION TO VISIBILITY.

MIZ047>049-052>055-059>063-066>070-074>076-081>083-031200-
SOUTHEAST LOWER MICHIGAN

CITY           SKY/WX    TMP DP  RH WIND       PRES   REMARKS
ADRIAN         PTCLDY    54  51  90 CALM      30.00S
ALMA           CLEAR     45  45  99 CALM      30.02S
ANN ARBOR      PTCLDY    48  47  96 NE3       29.99S
BAD AXE        CLEAR     40  39  95 CALM      30.03S
CARO           CLEAR     42  41  98 CALM      30.02R
DETROIT CITY   CLEAR     54  49  83 N6        30.00R
DETROIT        MOCLDY    54  49  83 N3        30.00S
FLINT          CLEAR     51  48  89 E3        30.02R
GROSSE ILE     CLEAR     55  52  88 CALM      29.98S
HILLSDALE      PTCLDY    55  52  92 CALM      29.99S
HOWELL         PTCLDY    49  48  95 CALM      30.01R

CITY           SKY/WX    TMP DP  RH WIND       PRES   REMARKS
JACKSON        PTCLDY    53  50  89 NE3       30.00R
LAMBERTVILLE   PTCLDY    58  51  76 CALM      29.99R
LANSING        PTCLDY    50  48  93 CALM      30.01S
LAPEER         FAIR      43  42  97 CALM      30.02R
MASON          PTCLDY    48  47  97 CALM      30.00S
MONROE         CLEAR     54  51  89 CALM      29.98F
MT. CLEMENS    CLEAR     51  49  94 N5        29.98S
PONTIAC        MOCLDY    51  47  86 CALM      30.00R
PORT HOPE        N/A     50  41  71 SW6       30.00S
PORT HURON     CLEAR     46  46 100 CALM      30.00S
TRI CITIES     CLEAR     51  47  86 CALM      30.03R
MIDLAND        FAIR      43  42  96 CALM      30.01S
TROY           CLEAR     55  49  79 CALM      30.02S
SAGINAW HB     CLEAR     45  45 100 CALM      30.02R
$$
MIZ043>046-050>051-056>058-064>065-071>073-077>080-031200-
SOUTHWEST LOWER MICHIGAN

CITY           SKY/WX    TMP DP  RH WIND       PRES   REMARKS
BATTLE CREEK   PTCLDY    55  50  83 CALM      30.00R
BENTON HARBOR  PTCLDY    52  50  93 CALM      29.97S
BIG RAPIDS     CLEAR     47  44  90 CALM      30.02R
COLDWATER      PTCLDY    53  53  98 E3        29.99R
FREMONT        FAIR      52  49  91 E5        30.01R
HOLLAND        MOCLDY    55  49  80 E3        30.00R
GRAND RAPIDS   MOCLDY    52  49  89 NE5       30.00S
IONIA          FAIR      49  48  97 NE3       30.01R
KALAMAZOO      PTCLDY    54  50  86 CALM      30.00R
LUDINGTON        N/A     47  46  93 CALM      30.01S FOG
MARSHALL       PTCLDY    51  50  97 CALM      29.99R
MOUNT PLEASANT CLEAR     45  44  97 CALM      30.02R FOG
MUSKEGON       PTCLDY    53  49  86 CALM      30.00S
SOUTH HAVEN    PTCLDY    53  49  87 CALM      29.98S
$$
MIZ016>042-031200-
NORTHERN LOWER MICHIGAN

CITY           SKY/WX    TMP DP  RH WIND       PRES   REMARKS
ALPENA         CLEAR     47  42  83 CALM      30.01S
BEAVER ISLAND  MOCLDY    58  48  69 SW8       29.98R
BELLAIRE       CLEAR     47  46  95 CALM      30.00F
CADILLAC       CLEAR     44  42  93 CALM      30.01S
CHARLEVOIX     CLOUDY    58  50  76 S5        30.02S
FRANKFORT      CLEAR     51  45  79 CALM      30.00S
GAYLORD        CLEAR     51  45  79 S5        30.00F
GRAYLING       CLEAR     42  40  93 CALM      30.02S
HARBOR SPRINGS PTCLDY    56  51  80 CALM      29.99S
HOUGHTON LAKE  CLEAR     43  42  97 CALM      30.02S
MANISTEE       CLEAR     46  43  87 CALM      30.02R
OSCODA         CLEAR     43  39  86 CALM      30.01R
PELLSTON       CLOUDY    60  50  69 CALM      29.98F
ROGERS CITY    CLEAR     55  46  71 SW8       30.00S
TRAVERSE CITY  MOCLDY    52  47  83 S3        29.98F
$$
MIZ007>008-015-031200-
EASTERN UPPER MICHIGAN

CITY           SKY/WX    TMP DP  RH WIND       PRES   REMARKS
KINROSS        CLOUDY    57  54  88 SW5       29.95S
MACKINAC ISLAN CLOUDY    60  51  72 SW6       29.97S
NEWBERRY       CLOUDY    57  46  67 SW9       29.95S
S. S. MARIE    CLOUDY    58  50  75 SW6       29.94S
MUNISING         N/A     61  47  59 SW10      29.91F
$$
MIZ004>006-011>014-085-031200-
CENTRAL UPPER MICHIGAN

CITY           SKY/WX    TMP DP  RH WIND       PRES   REMARKS
MANISTIQUE     CLEAR     57  48  71 SW3       29.95F
ESCANABA       CLEAR     54  48  82 CALM      29.96R
MENOMINEE      CLEAR     55  46  71 W3        29.97F
SAWYER-GWINN   CLEAR     57  50  77 SW10      29.93F
$$
MIZ001>003-009>011-084-031200-
WESTERN UPPER MICHIGAN

CITY           SKY/WX    TMP DP  RH WIND       PRES   REMARKS
IRON MOUNTAIN  CLEAR     52  48  86 CALM      29.96S
HOUGHTON       MOCLDY    66  52  60 W14       29.88R
COPPER HARBOR    N/A     60  51  72 NW9G18    29.87S
IRONWOOD       PTCLDY    61  55  82 SW8       29.91S
$$

ABBREVIATIONS USED IN REMARKS
   TC - TEMPERATURE IN CELSIUS
  WCI - WIND CHILL INDEX
   HX - HEAT INDEX
  VSB - VISIBILITY



USA.gov is the U.S. government's official web portal to all federal, state and local government web resources and services.